This demonstration page uses our WeatherBlox Daily Observations layout. Learn more.

Left ArrowRight Arrow

44.31136, -96.79839

Hourly Observations for May 24, 2022

Temp ( °F °C ) Dew Point ( °F °C ) Humidity (%) Winds ( mph kmh ) Pressure ( in mb ) Visibility ( mi km ) Precip ( " mm )
12:56 am 00:56 Mostly Cloudy 52 11.1 39 3.9 61 61 SE 7 11 30.22 1023 10 16 0.00 0.00
1:56 am 01:56 Cloudy 52 11.1 39 3.9 61 61 SE 7 11 30.22 1024 10 16 0.00 0.00
2:56 am 02:56 Cloudy 50 10 37 2.8 61 61 ESE 8 13 30.21 1023 10 16 0.00 0.00
3:56 am 03:56 Clear 46 7.8 35 1.7 66 66 ESE 8 13 30.20 1023 10 16 0.00 0.00
4:56 am 04:56 Clear 45 7.2 34 1.1 66 66 SE 8 13 30.20 1023 10 16 0.00 0.00
5:56 am 05:56 Sunny 43 6.1 34 1.1 71 71 SE 9 15 30.21 1023 10 16 0.00 0.00
6:56 am 06:56 Sunny 48 8.9 34 1.1 58 58 SE 9 15 30.21 1023 10 16 0.00 0.00
7:56 am 07:56 Sunny 53 11.7 35 1.7 51 51 SE 9 15 30.22 1023 10 16 0.00 0.00
8:56 am 08:56 Sunny 58 14.4 35 1.7 42 42 SSE 9 15 30.20 1023 10 16 0.00 0.00
9:56 am 09:56 Sunny 61 16.1 35 1.7 38 38 SSE 7 11 30.20 1023 10 16 0.00 0.00
10:56 am 10:56 Sunny 63 17.2 34 1.1 34 34 ESE 12 19 30.20 1023 10 16 0.00 0.00
11:56 am 11:56 Sunny 65 18.3 35 1.7 33 33 SE 20 31 30.18 1022 10 16 0.00 0.00
12:56 pm 12:56 Sunny 66 18.9 36 2.2 33 33 E 15 24 30.16 1022 10 16 0.00 0.00
1:56 pm 13:56 Mostly Sunny 67 19.4 36 2.2 32 32 E 20 31 30.13 1020 10 16 0.00 0.00
2:56 pm 14:56 Sunny 68 20 34 1.1 28 28 E 14 22 30.11 1020 10 16 0.00 0.00
3:56 pm 15:56 Sunny 68 20 36 2.2 31 31 ESE 16 26 30.11 1020 10 16 0.00 0.00
4:56 pm 16:56 Mostly Sunny 66 18.9 37 2.8 34 34 SE 16 26 30.10 1019 10 16 0.00 0.00
5:56 pm 17:56 Mostly Sunny 65 18.3 38 3.3 37 37 ESE 12 19 30.11 1020 10 16 0.00 0.00
6:56 pm 18:56 Sunny 63 17.2 38 3.3 40 40 E 9 15 30.10 1019 10 16 0.00 0.00
7:56 pm 19:56 Sunny 62 16.7 38 3.3 41 41 E 10 17 30.09 1019 10 16 0.00 0.00
8:56 pm 20:56 Mostly Cloudy 60 15.6 39 3.9 46 46 E 8 13 30.10 1019 10 16 0.00 0.00
9:56 pm 21:56 Mostly Cloudy 58 14.4 41 5 53 53 SSE 9 15 30.11 1020 10 16 0.00 0.00
10:56 pm 22:56 Partly Cloudy 54 12.2 43 6.1 67 67 S 9 15 30.13 1020 10 16 0.00 0.00
11:56 pm 23:56 Cloudy 52 11.1 45 7.2 77 77 SSE 12 19 30.12 1020 10 16 0.00 0.00

Powered by AerisWeather